Theta_e
346 347 345 345 345 344 344 345 346 346 346 345 344 342 342 343 342 342 342 345 346 348 348 344 347 353 350 340 338 338 337 338 338 340 342 340 338 338 343 349 350 345 344 344 344 344 345 346 346 346 345 345 346 347 348 347 347 349 352 352 352 352 351
346 347 346 345 345 345 345 345 345 346 346 345 344 342 343 343 342 342 342 345 346 347 347 341 340 350 350 341 338 338 337 338 340 344 348 349 348 346 345 350 353 346 342 343 344 343 344 344 344 343 342 344 346 347 346 346 345 347 350 352 353 354 354
346 346 346 345 345 344 345 345 345 346 345 345 344 344 343 343 343 343 343 344 346 347 348 344 340 343 346 340 339 341 340 338 339 344 348 350 350 347 344 349 354 350 343 342 342 342 342 343 343 344 344 346 347 346 346 346 346 346 347 348 352 354 353
346 346 346 346 344 343 344 345 345 345 345 345 344 344 344 343 343 344 344 343 346 347 349 349 345 341 342 342 342 346 347 343 343 347 348 346 344 344 344 346 350 349 344 343 342 342 342 342 343 345 344 345 347 348 348 347 346 346 346 346 350 352 349
347 347 346 346 346 344 344 345 346 346 345 345 345 344 345 344 343 344 345 343 345 347 349 353 352 347 346 346 346 347 348 347 346 346 344 342 342 345 347 346 346 346 344 344 344 344 344 343 344 344 344 345 346 347 348 347 346 347 348 348 349 350 348
348 347 347 347 345 344 344 344 346 345 347 345 345 345 344 345 345 344 345 345 345 347 348 351 353 351 348 347 346 344 345 344 344 343 342 343 344 346 346 346 345 344 344 343 343 343 344 344 344 345 346 347 348 349 349 349 348 349 351 352 351 351 351
346 346 347 347 345 346 344 344 346 345 347 346 345 345 344 344 345 344 345 346 345 346 347 349 350 351 349 347 345 345 344 343 343 345 344 344 345 345 345 345 345 343 344 344 343 344 345 348 349 351 351 351 351 351 351 353 353 351 352 354 354 353 352
346 345 347 347 347 347 345 345 345 344 346 346 345 345 345 344 344 344 345 346 346 346 347 349 349 349 350 348 344 342 343 343 344 345 345 346 347 346 347 349 346 343 344 345 343 343 344 348 350 353 354 352 352 353 353 355 356 354 354 356 357 356 354
346 346 346 346 345 346 345 345 345 345 345 345 345 345 344 345 346 345 346 347 348 347 348 349 350 350 350 349 344 340 338 340 341 340 341 342 344 346 350 350 346 345 346 345 346 346 345 347 349 352 353 353 356 355 354 355 357 356 357 358 358 356 353
347 346 346 345 344 343 344 344 344 344 344 344 343 344 345 344 345 345 346 347 348 349 348 349 350 351 352 350 346 341 339 338 338 339 339 339 343 350 355 353 347 347 347 348 349 351 350 351 355 356 355 356 356 354 351 353 355 355 356 356 356 355 353
347 347 346 345 345 344 344 344 344 343 344 343 342 344 343 342 344 347 347 347 349 349 349 349 349 351 352 349 345 343 342 341 339 339 341 341 347 356 361 360 357 355 354 353 356 357 358 359 359 357 356 356 356 353 351 354 355 354 354 354 354 353 352
345 346 346 345 345 345 343 342 344 344 345 343 342 345 346 344 345 349 348 347 347 349 350 350 350 351 349 347 344 343 347 350 349 347 349 349 352 359 364 366 363 361 359 358 359 359 359 358 357 356 355 355 355 354 353 354 354 353 351 350 350 349 349
345 344 345 345 345 346 343 341 344 346 346 345 342 345 349 348 346 350 352 351 349 351 352 352 351 350 347 345 345 344 349 358 359 357 356 355 357 362 365 364 361 358 357 357 356 355 354 353 353 353 351 351 351 350 349 349 350 349 348 346 345 344 345
346 344 346 348 347 346 344 343 345 345 345 347 345 346 351 351 348 351 354 354 353 353 354 351 348 347 345 346 349 348 352 359 361 359 358 356 357 360 361 360 356 355 355 355 354 354 353 353 353 353 351 348 346 344 343 342 342 342 341 340 340 340 340
349 346 346 349 348 344 343 346 347 343 343 350 352 352 355 353 351 353 354 354 355 354 352 349 345 346 348 349 351 351 354 357 358 357 356 355 355 356 356 355 354 353 353 353 352 351 351 351 351 351 348 344 340 339 340 339 338 338 338 337 337 337 337
352 347 345 349 347 344 347 352 353 350 351 354 356 356 358 356 354 354 354 354 354 353 351 348 348 349 351 352 353 353 353 354 354 354 353 353 353 353 353 352 352 351 350 350 349 347 345 343 342 340 337 335 335 336 338 337 336 336 336 336 335 335 334
356 354 353 355 351 349 356 358 357 356 356 357 359 360 360 359 357 356 355 354 353 352 351 350 352 353 353 353 353 352 351 351 352 352 352 352 352 351 351 351 350 348 347 345 342 338 334 332 330 330 331 333 334 335 336 336 335 335 335 334 334 334 333
362 363 362 362 360 360 363 361 360 361 362 364 365 364 362 361 360 357 355 354 352 353 353 354 354 353 352 352 351 352 352 351 350 351 351 351 351 349 348 347 344 341 338 334 330 327 326 328 330 332 334 334 334 335 336 335 335 335 335 335 334 334 333
362 367 369 368 368 370 370 369 368 369 368 369 368 365 364 363 360 357 355 356 355 355 355 356 354 351 351 352 353 353 352 351 352 351 349 348 346 344 342 338 334 329 326 324 326 328 329 332 335 336 336 335 335 335 335 335 334 334 334 333 332 330 329
359 361 367 372 374 375 374 371 370 371 371 371 371 369 366 363 360 359 359 358 356 356 356 355 352 350 351 352 353 353 352 350 349 347 344 341 338 335 331 326 324 323 322 324 329 333 333 334 335 336 335 335 334 334 333 333 332 332 330 328 326 325 324
355 354 362 373 376 374 372 371 372 374 373 372 371 369 365 364 361 359 359 358 356 355 354 352 351 351 352 352 351 350 348 345 342 339 336 332 328 326 324 323 324 325 326 328 332 334 334 334 333 333 333 332 331 331 330 330 328 327 326 324 323 323 323
353 353 361 373 374 372 374 373 373 373 371 370 369 365 364 364 361 358 358 357 355 353 352 351 351 351 350 348 346 343 340 336 333 331 327 324 323 322 323 326 328 328 330 333 334 334 332 332 332 332 330 330 329 328 327 327 325 324 324 323 323 323 324
355 360 367 374 374 375 376 372 370 368 366 366 365 362 362 361 358 356 356 354 351 350 350 349 347 346 343 340 336 333 330 328 326 324 323 322 323 325 326 329 330 330 332 333 333 332 331 331 331 330 329 328 327 325 325 324 324 323 323 323 323 323 323
363 367 371 373 373 373 371 368 367 365 363 361 361 360 359 356 354 352 351 350 349 347 346 344 341 338 335 331 329 327 325 324 322 322 322 323 326 329 331 332 331 332 332 332 332 331 330 329 328 327 327 326 324 324 324 324 323 323 322 322 323 324 324
368 368 369 369 368 367 366 366 365 363 361 360 359 357 355 351 349 347 347 347 344 341 340 338 335 331 329 327 325 324 322 321 322 323 324 326 329 331 332 331 331 331 331 330 330 329 328 327 326 326 325 324 323 323 324 323 323 323 322 323 324 324 324
367 366 365 365 364 363 364 363 362 361 360 357 355 354 350 347 346 345 343 342 339 335 333 331 329 328 325 324 322 321 321 321 322 326 328 329 331 331 331 331 330 330 330 329 328 327 326 326 326 325 324 324 323 323 323 323 323 322 322 323 324 324 323
363 362 362 362 361 361 361 360 360 359 358 356 354 351 346 344 342 338 336 335 333 331 329 327 325 324 322 322 321 321 322 323 325 329 331 331 331 331 330 330 329 329 328 327 327 326 326 325 325 325 324 324 323 322 322 322 322 322 323 323 323 323 323
361 361 360 360 360 359 358 357 357 356 355 354 352 348 342 338 336 333 332 331 330 328 326 324 323 321 321 322 322 323 327 329 330 331 331 331 331 330 329 330 329 328 328 327 326 326 325 325 325 324 324 322 320 319 319 320 321 322 323 324 324 323 323
360 359 358 358 358 357 356 355 353 352 351 350 348 343 336 333 332 331 330 328 326 325 323 322 322 323 323 323 326 328 331 331 331 331 330 330 330 330 330 329 327 327 327 326 326 325 325 324 324 323 321 319 317 316 316 317 319 322 324 324 323 323 323
359 357 356 356 355 353 352 350 349 348 347 345 341 334 331 331 331 328 327 326 324 322 322 324 326 326 326 328 331 332 332 331 331 330 330 330 330 329 328 327 326 325 326 326 326 325 324 325 323 320 317 317 316 315 314 316 320 323 324 323 323 323 323
357 355 354 352 350 349 348 346 346 344 341 336 333 331 330 329 327 325 325 324 322 321 325 330 331 330 330 331 332 333 332 331 330 330 329 329 329 328 327 327 326 324 324 324 325 324 324 324 321 317 314 313 313 313 313 317 321 323 323 323 323 324 324
354 352 351 349 347 346 344 342 340 338 334 331 330 329 327 325 324 324 322 321 323 328 332 334 333 332 332 332 332 331 330 330 329 329 327 327 327 328 327 326 325 323 322 322 323 324 324 323 321 317 312 310 311 311 313 317 321 322 323 323 323 324 324
350 349 348 347 346 344 341 337 335 334 332 331 330 327 325 323 322 320 320 325 330 334 335 335 333 332 333 332 331 330 330 330 329 328 326 324 324 323 321 321 321 321 320 320 320 321 320 319 319 317 313 310 310 310 311 316 319 321 322 322 323 323 323
350 349 347 346 344 342 339 334 333 332 330 328 326 323 321 320 320 321 327 333 335 334 334 333 333 332 332 331 331 330 330 330 328 327 326 322 319 317 316 317 317 316 316 316 315 315 314 314 314 315 313 310 309 309 310 313 316 319 320 321 321 322 322
351 349 347 345 343 340 337 334 330 329 327 326 326 325 324 323 325 329 334 336 335 333 333 333 333 332 331 331 330 330 329 329 329 329 327 322 316 314 314 314 314 314 313 312 312 311 311 311 311 311 311 310 310 309 309 311 313 316 318 319 320 321 322
348 346 344 341 339 336 333 331 328 325 325 326 328 330 330 329 330 332 335 336 335 334 334 333 333 332 331 330 330 329 329 329 328 327 324 319 314 313 313 312 312 312 311 311 311 310 310 310 310 310 310 310 310 310 309 309 311 313 314 316 318 319 321
345 341 338 336 333 332 330 328 326 324 324 325 324 326 329 330 333 335 335 334 334 334 333 332 332 331 331 330 330 328 326 323 321 320 317 314 312 312 311 311 311 311 311 311 311 311 310 310 310 310 310 310 310 310 310 310 310 311 312 313 314 316 319
340 338 337 334 333 331 329 326 324 322 322 322 321 322 324 328 332 335 334 332 332 333 332 331 331 331 330 330 329 328 325 320 315 313 312 311 311 312 312 311 311 310 310 310 310 310 310 310 310 310 310 310 310 310 310 310 310 310 311 311 312 314 317
Wind_Speed
25 24 26 27 26 27 28 28 27 26 26 26 27 27 24 24 25 24 22 25 30 29 25 23 22 21 20 16 13 12 11 12 12 13 13 14 14 15 16 16 17 16 17 18 18 18 18 15 15 17 17 18 17 15 18 21 21 20 21 21 22 24 26
27 24 26 27 26 26 28 30 28 26 26 26 26 26 25 24 24 24 23 24 28 29 25 22 22 22 20 16 14 13 12 13 13 13 14 14 14 14 15 15 16 17 17 18 17 17 17 17 21 24 20 16 16 18 20 20 18 18 19 22 24 25 25
28 27 26 26 26 26 27 29 29 26 25 25 25 25 26 25 23 24 24 23 25 26 25 22 22 23 21 17 14 14 14 14 14 13 13 13 13 13 16 16 16 16 16 17 18 18 18 20 23 23 20 19 20 20 21 21 20 20 22 23 26 27 26
28 28 27 26 25 25 24 27 29 26 24 24 24 24 24 24 23 23 23 23 24 25 24 24 22 23 23 19 15 15 15 15 15 14 13 14 14 14 15 17 17 17 16 17 18 18 18 19 20 21 22 23 22 22 24 25 24 24 23 23 24 25 24
28 26 24 25 25 25 24 26 28 27 24 23 23 23 23 23 23 23 23 23 23 24 23 23 22 22 22 20 17 16 16 16 16 16 15 14 15 15 16 17 17 18 17 17 17 18 18 19 22 24 25 24 23 25 26 27 27 25 24 25 26 25 24
27 26 24 24 25 25 25 24 25 26 25 24 24 24 23 23 23 23 24 24 23 22 23 24 21 20 22 21 19 17 17 17 17 17 17 17 17 17 17 17 16 17 18 17 16 16 17 20 24 25 24 23 23 25 27 27 27 26 24 23 23 24 26
26 25 25 24 22 23 24 23 23 24 24 24 24 24 23 24 24 23 25 28 26 23 23 24 22 21 23 23 22 20 18 16 15 14 14 16 18 17 16 15 15 15 16 16 16 17 17 16 17 18 20 23 24 25 28 27 25 26 25 21 20 23 25
26 26 24 22 21 21 22 23 23 23 23 23 24 24 23 24 24 23 24 27 28 26 23 22 21 22 23 24 24 23 21 19 18 16 14 13 14 14 15 15 15 16 17 17 19 22 22 19 17 18 22 24 25 24 25 24 22 23 23 22 23 25 26
28 28 27 24 23 23 23 24 23 23 24 24 24 24 24 23 23 25 24 24 26 27 25 22 20 21 23 24 24 23 22 22 21 22 21 19 17 15 15 15 15 17 20 20 20 23 27 27 25 25 26 25 23 22 21 20 20 21 20 22 25 27 27
29 28 27 26 24 24 25 25 25 25 26 26 24 24 25 24 23 26 27 25 25 27 27 24 22 21 22 22 22 20 20 21 22 22 22 22 19 13 12 15 16 19 22 22 21 23 26 26 24 24 24 21 19 18 17 17 19 20 20 22 25 26 25
30 28 27 27 26 26 26 24 24 28 29 27 25 24 26 27 25 23 25 26 25 25 25 26 25 23 23 21 19 18 18 19 21 21 21 20 15 9 9 13 17 20 21 21 20 19 19 18 16 14 13 12 13 14 13 14 17 18 19 21 23 23 23
29 29 26 24 23 27 29 25 23 27 29 26 22 21 24 30 27 19 20 24 26 24 23 23 24 23 22 20 18 18 16 15 16 17 17 16 12 9 11 14 15 16 17 18 18 16 15 15 14 11 10 10 11 12 12 13 15 16 18 20 20 21 21
27 26 26 23 21 25 32 30 25 27 30 26 20 19 21 28 28 20 18 22 23 22 21 20 20 20 20 18 17 17 14 13 14 15 14 13 12 12 14 14 13 12 12 13 13 11 11 11 10 10 11 13 14 14 14 16 18 19 21 21 21 20 19
27 25 27 25 23 27 31 31 27 24 26 26 24 24 23 26 29 24 20 21 22 22 20 19 18 19 19 18 17 16 15 15 17 16 14 13 13 13 14 12 11 9 8 8 6 5 7 7 6 8 11 14 15 15 14 16 18 20 21 20 20 20 20
29 28 27 24 23 25 25 26 27 26 26 27 28 29 26 27 29 27 23 23 22 21 20 19 19 18 17 17 17 17 17 17 17 14 12 12 10 9 10 8 6 5 4 5 5 6 8 9 10 12 14 14 14 12 11 14 16 18 18 18 19 20 22
29 30 27 24 25 24 22 25 30 30 31 30 28 28 27 28 30 29 27 25 23 22 20 19 18 17 17 18 17 16 14 14 13 12 10 9 6 4 3 2 2 3 4 5 6 7 7 8 10 11 13 13 11 10 12 14 15 17 18 19 21 23 25
23 30 28 26 29 29 26 28 31 31 31 30 28 29 28 28 29 28 27 26 24 21 19 17 17 17 17 16 14 11 11 11 10 8 6 3 3 2 1 2 4 4 4 5 7 9 10 11 12 12 12 11 10 10 13 14 16 18 20 22 23 25 27
17 27 27 27 30 30 29 30 31 30 30 29 29 30 30 29 29 28 27 25 22 20 18 17 16 16 15 13 10 9 8 6 4 4 3 4 5 4 3 3 3 5 7 9 10 11 11 11 11 11 10 10 8 10 13 15 17 20 21 23 25 26 28
17 21 24 27 29 28 29 30 30 30 31 30 30 30 29 28 27 26 24 21 20 19 17 15 14 14 13 11 8 7 6 6 6 6 5 3 2 1 3 5 7 10 11 11 10 10 9 8 8 9 10 10 8 10 14 15 18 21 23 24 26 28 28
15 17 19 25 27 26 28 29 29 29 28 26 25 24 24 23 22 23 21 19 19 18 15 14 14 14 13 11 10 10 9 7 5 4 2 1 3 5 7 9 10 11 11 9 7 7 7 7 6 8 9 10 9 10 14 16 19 22 24 26 27 27 26
10 14 16 22 27 25 27 28 26 25 23 22 20 20 20 19 19 21 20 18 18 17 16 16 15 15 14 11 10 9 7 5 2 0 1 4 6 8 9 9 9 10 9 7 5 6 8 10 9 9 11 11 11 12 15 18 20 22 25 26 25 25 24
10 10 12 17 24 25 27 28 26 24 23 22 20 20 19 17 18 20 19 18 18 17 17 17 15 14 12 10 8 5 3 2 1 3 4 6 7 8 8 6 7 8 6 6 6 7 9 10 7 8 11 12 13 14 15 17 19 22 24 25 25 25 25
18 14 8 13 20 22 25 27 26 25 25 23 21 21 20 19 19 21 20 19 19 19 18 17 14 12 9 8 6 4 3 2 3 4 5 6 6 6 6 4 5 5 8 9 8 6 5 5 5 7 11 15 15 15 14 15 18 20 23 24 25 25 25
25 23 18 17 18 20 22 24 25 27 27 26 24 21 21 21 21 22 22 21 20 19 17 15 12 10 8 7 5 4 3 3 4 4 4 4 3 3 3 4 5 7 8 7 5 5 4 6 8 9 12 15 15 14 14 15 17 19 22 23 23 23 22
28 27 25 22 19 19 21 24 26 27 28 29 26 22 21 23 23 23 22 21 19 16 15 13 11 9 8 6 5 4 3 3 3 3 3 2 0 2 4 6 7 6 4 3 3 6 8 8 10 12 14 17 16 14 14 15 15 18 21 21 21 20 18
30 30 29 28 25 23 23 24 26 26 27 27 27 25 25 25 24 23 21 19 17 15 13 11 9 8 6 5 4 4 4 4 4 3 1 1 3 5 7 6 5 5 5 5 7 10 12 11 12 14 17 18 17 15 15 15 15 18 20 19 18 18 18
30 30 30 31 30 28 25 24 23 24 25 25 26 26 26 24 23 21 19 17 15 13 11 10 8 7 6 5 5 5 4 4 3 3 5 5 6 8 8 6 5 5 7 9 10 11 12 13 14 17 18 18 17 16 16 15 16 18 19 18 18 19 21
32 32 32 31 29 28 27 26 24 23 23 22 22 24 24 22 20 18 16 14 13 11 10 9 8 8 7 6 5 4 4 5 5 6 8 8 8 8 8 7 6 8 10 11 11 11 12 14 15 16 16 17 18 19 19 18 18 18 18 18 21 25 27
36 36 36 34 30 29 29 28 26 24 22 20 20 21 20 18 17 16 14 12 11 10 10 9 9 9 8 6 6 6 7 8 8 8 9 9 9 8 5 5 7 10 12 11 10 11 13 14 14 14 15 17 19 21 22 22 21 20 19 21 26 31 32
36 37 37 35 33 32 30 30 29 26 23 21 21 20 16 13 14 15 13 11 10 9 9 8 8 8 7 6 8 10 10 10 11 11 10 8 7 6 5 6 8 10 10 9 10 13 14 13 12 15 17 18 19 21 23 23 23 22 22 26 30 32 32
31 34 36 35 35 34 34 33 31 28 25 23 20 18 13 9 10 11 11 10 9 8 8 8 7 7 7 9 11 11 11 12 12 10 8 7 7 6 7 9 10 9 9 10 11 12 11 9 12 16 18 19 20 21 23 24 24 25 26 27 27 28 28
26 27 31 35 37 38 39 37 33 29 26 23 20 17 13 9 7 8 8 8 8 8 9 9 8 7 8 11 12 11 12 13 12 8 8 8 8 8 9 9 10 11 11 11 12 11 9 8 11 15 18 21 22 22 24 25 24 24 24 24 24 24 24
25 26 29 33 34 35 38 38 35 31 27 24 21 18 14 11 8 6 6 7 8 9 9 9 8 7 9 11 13 13 12 12 11 9 9 10 9 10 10 10 10 12 13 14 13 12 11 11 12 13 16 19 21 21 23 25 25 24 24 24 24 23 23
25 27 29 29 28 29 32 34 34 31 27 24 21 18 15 12 9 8 8 9 9 9 9 8 7 8 11 14 15 13 11 11 10 9 9 11 12 12 13 13 13 14 16 17 17 16 16 16 17 16 15 17 18 19 21 23 25 25 25 24 24 23 23
25 27 28 29 28 27 28 30 30 29 26 23 20 17 15 14 13 12 12 11 9 9 9 9 9 9 11 14 14 13 13 13 12 9 9 10 13 14 15 15 15 16 18 18 18 18 18 18 17 17 17 16 17 18 19 20 22 23 23 23 24 23 23
29 30 30 29 29 27 25 25 25 24 23 22 19 17 16 15 15 13 12 12 11 10 11 11 10 10 11 13 13 13 13 15 16 14 12 13 15 16 17 17 16 17 18 18 18 17 17 16 16 16 16 16 16 17 18 18 18 18 18 19 21 22 22
32 32 30 28 27 24 22 21 20 20 20 18 17 16 16 16 16 14 13 13 12 11 11 11 10 10 12 14 13 11 11 14 16 16 16 18 17 17 17 17 17 16 16 15 15 15 14 14 14 14 14 14 14 15 15 15 14 14 15 16 17 20 21
33 32 30 28 26 24 22 20 18 17 16 15 15 16 16 17 17 15 12 11 11 10 10 10 10 10 12 14 14 12 11 14 17 19 20 19 18 17 16 15 14 14 13 12 12 12 11 11 12 12 12 11 11 12 12 12 12 12 13 13 13 16 20
Wind_Direction
195 191 187 188 190 190 188 189 191 192 193 192 193 196 197 195 193 194 196 194 191 194 203 202 196 202 211 214 216 222 228 234 241 246 250 256 260 261 255 246 248 256 262 267 272 276 278 273 264 269 272 260 254 258 260 266 274 273 272 271 269 268 268
192 195 191 187 189 190 188 188 190 192 194 195 194 196 199 198 195 195 195 196 196 197 203 207 202 202 210 216 216 221 227 230 235 237 240 250 256 268 275 261 248 251 256 260 262 266 271 272 270 274 275 262 253 258 264 270 275 274 270 267 266 267 268
189 194 192 187 188 191 188 184 187 192 195 196 196 197 201 201 198 197 197 196 199 201 203 206 207 205 209 216 217 218 224 228 233 236 236 245 252 264 279 276 264 259 262 264 261 257 260 266 265 263 260 256 255 254 252 253 259 262 263 265 264 262 267
188 193 189 184 185 188 187 183 185 191 195 197 197 198 201 204 202 200 200 198 200 204 203 202 207 210 211 215 217 215 223 231 239 243 240 250 262 265 267 268 266 268 275 278 271 264 262 261 260 261 262 262 259 257 257 260 265 265 262 262 261 263 272
187 189 185 182 184 186 186 185 183 188 194 196 198 199 200 205 207 204 203 202 201 204 203 200 204 211 210 211 214 217 223 230 237 247 252 256 260 259 256 258 259 262 270 273 270 271 266 255 257 265 270 270 265 264 268 272 273 270 261 258 263 268 270
183 182 185 187 186 182 182 183 182 186 194 196 198 200 200 203 207 208 205 203 202 201 202 202 205 213 212 208 213 222 226 232 234 240 251 255 252 253 255 255 257 261 267 266 262 266 265 258 262 269 268 266 265 268 273 275 274 269 261 261 268 268 264
179 178 184 189 185 177 177 181 183 186 191 196 199 200 201 202 205 211 209 203 203 203 204 210 212 216 217 210 211 219 223 232 233 229 242 250 247 256 264 256 252 257 265 265 258 261 266 267 271 270 262 262 266 272 278 280 276 268 261 263 266 264 265
174 176 181 186 183 179 179 182 185 186 188 195 200 198 201 205 203 209 213 204 202 204 207 215 217 216 218 217 216 220 222 228 232 232 244 252 248 258 266 259 251 249 254 259 258 261 265 269 275 271 266 270 275 278 281 280 276 269 265 268 269 266 267
172 176 177 179 183 181 181 182 183 183 186 194 201 197 198 206 204 205 213 206 199 203 206 212 217 216 220 224 225 229 232 235 237 238 244 253 257 257 256 259 263 263 264 265 263 260 260 264 271 271 271 276 279 279 280 278 275 271 269 271 271 270 272
168 171 169 178 187 183 178 180 182 183 185 191 199 197 194 204 209 205 208 207 201 204 207 209 213 218 224 230 232 235 238 239 241 242 245 254 260 256 249 253 258 260 262 262 259 257 256 260 265 268 272 276 276 275 280 281 276 270 267 268 271 273 277
166 165 168 181 187 179 173 176 184 185 184 186 197 202 196 199 206 203 201 203 203 204 207 208 211 216 226 234 236 238 240 241 243 247 250 254 254 246 244 242 237 242 248 250 252 252 250 252 258 268 278 282 280 277 277 281 279 274 270 272 277 282 285
170 169 174 184 181 175 174 181 190 186 180 182 194 201 194 193 197 197 196 198 200 201 205 210 212 217 226 233 234 235 235 239 246 248 250 253 244 226 230 233 232 241 247 248 252 254 252 254 261 271 268 262 267 269 268 274 279 277 277 277 280 285 289
172 172 179 186 183 172 170 177 187 183 175 175 188 201 196 190 190 192 192 189 191 198 204 209 211 215 223 227 230 231 225 224 234 238 240 243 234 223 229 237 244 253 257 257 261 265 265 265 270 277 270 264 268 275 278 279 275 274 278 281 283 285 286
166 176 181 185 181 166 164 172 180 183 178 172 182 196 193 184 183 188 192 188 190 199 205 209 212 214 219 220 221 222 213 213 224 231 236 240 236 232 236 244 252 256 259 268 271 256 254 256 250 257 271 282 289 294 294 287 281 281 284 286 288 288 285
162 175 181 185 179 168 170 181 184 188 189 180 180 184 180 176 181 188 194 195 198 203 206 211 213 211 212 212 212 213 212 217 229 236 240 241 240 240 242 249 264 270 263 263 255 243 250 257 253 257 273 292 305 310 302 293 292 294 294 294 293 291 289
160 166 179 186 183 183 185 182 176 175 179 179 177 176 177 179 184 190 195 198 201 204 205 208 205 200 201 202 206 214 216 220 229 233 236 235 228 233 242 222 220 244 250 250 255 267 279 282 281 285 293 305 317 318 305 299 301 300 299 299 298 296 295
164 157 171 173 172 181 179 169 168 167 170 174 174 175 179 181 184 190 194 197 200 201 199 197 193 192 195 198 203 209 211 213 215 217 224 200 130 125 236 215 207 232 263 285 295 305 313 310 309 316 318 319 328 321 307 303 303 301 300 299 299 298 298
182 155 162 161 161 169 168 165 168 169 170 172 173 177 181 180 183 188 192 193 193 190 188 186 185 185 187 188 188 190 194 193 169 147 145 139 142 165 215 254 281 302 311 316 316 314 316 321 327 329 320 317 323 313 303 304 302 298 297 298 298 299 300
191 165 162 161 162 164 163 166 168 167 169 171 173 179 181 179 182 183 183 181 177 174 173 170 169 170 169 164 152 142 132 122 125 137 144 154 177 221 299 313 316 314 312 315 319 321 324 332 336 326 313 313 317 306 302 304 301 297 298 299 300 302 305
175 176 172 163 161 161 161 165 165 164 167 167 168 172 171 172 173 170 166 162 160 161 157 152 153 152 147 139 128 123 123 128 147 158 153 298 320 319 315 315 313 310 312 319 327 332 335 334 326 322 319 319 319 311 306 305 300 299 301 304 307 311 315
165 196 198 169 159 157 158 158 155 154 157 154 153 156 156 158 157 152 151 148 146 146 142 142 144 138 136 136 130 130 136 143 150 132 316 308 311 310 311 315 312 309 318 332 334 344 355 352 341 333 325 316 313 314 311 309 306 306 309 314 320 324 324
160 199 213 168 153 151 152 153 150 146 148 145 142 146 144 142 142 142 141 138 138 138 139 143 144 140 143 149 143 144 156 164 252 296 303 305 307 307 309 312 307 313 346 9 3 14 22 14 359 340 326 316 316 319 318 317 316 316 321 327 332 333 334
152 161 167 142 141 143 145 150 148 145 145 139 135 139 138 136 139 141 138 139 144 147 149 152 153 151 155 160 164 181 200 230 277 294 300 300 300 306 310 310 322 360 42 37 14 17 30 7 339 330 325 321 326 333 336 337 331 327 332 337 338 339 341
146 148 144 134 137 138 137 139 139 141 144 140 135 138 141 143 146 146 146 149 152 153 155 157 160 164 170 174 184 201 222 257 279 281 277 280 291 321 338 7 26 42 61 52 2 325 335 349 344 341 335 333 341 350 351 347 337 332 340 345 343 344 348
139 141 140 137 139 139 135 135 135 136 141 142 140 141 146 152 155 154 152 151 151 153 156 161 166 171 174 181 192 208 228 243 246 246 254 267 325 47 44 48 49 46 51 54 4 344 355 7 2 354 351 350 355 358 351 347 342 340 349 353 349 352 1
139 140 138 136 139 140 137 135 135 133 135 139 142 146 151 155 156 154 151 150 153 156 158 162 166 168 175 189 197 208 218 214 208 207 177 78 73 73 68 64 65 56 34 34 35 21 14 15 8 1 1 1 2 1 355 352 350 352 357 359 359 7 19
137 137 136 136 138 139 137 134 133 131 131 134 141 147 151 153 152 150 151 153 156 158 159 164 169 172 183 194 195 200 199 184 162 122 98 84 76 81 81 68 61 63 53 47 44 30 20 19 14 7 7 9 11 13 12 7 5 5 7 10 16 25 29
136 136 135 135 136 138 138 136 132 127 125 128 138 145 148 149 149 148 150 153 155 158 165 172 178 182 188 189 186 176 144 120 111 104 98 91 82 80 79 70 61 57 54 52 48 38 31 25 17 13 20 28 30 32 31 26 20 16 16 23 35 42 43
139 138 137 136 137 137 135 131 127 123 121 124 134 141 143 147 147 145 148 152 155 165 173 177 179 177 176 169 150 127 111 102 95 90 89 90 90 89 89 90 84 74 66 56 43 41 41 31 22 29 40 42 38 35 34 32 27 23 29 43 54 57 57
137 138 137 136 136 135 133 130 128 128 131 134 137 137 139 147 147 146 151 156 162 172 171 166 167 167 161 142 120 110 104 96 90 91 93 93 99 109 113 95 83 83 88 84 63 51 44 31 29 45 50 45 40 37 36 38 41 44 51 60 64 64 62
137 138 137 137 138 139 141 141 139 137 136 138 138 134 137 152 154 152 156 160 163 164 150 145 155 156 138 122 115 114 112 105 101 105 110 108 106 106 98 86 79 78 87 99 97 84 68 45 40 51 55 52 48 44 42 46 55 62 64 64 64 63 60
135 134 136 140 145 148 149 149 146 142 140 140 141 143 148 156 151 149 156 157 151 140 139 152 162 143 123 120 118 113 108 106 108 109 104 104 109 110 105 102 99 91 86 94 108 111 103 83 60 54 56 58 55 51 49 53 60 66 66 63 60 57 55
134 137 140 142 144 147 150 151 151 150 149 147 147 150 155 153 145 140 138 140 144 143 149 162 161 134 123 119 108 98 98 108 116 112 102 103 110 113 111 107 104 100 95 95 101 106 107 101 84 67 59 60 60 57 54 54 56 59 60 58 55 52 50
133 139 142 140 137 139 145 149 150 151 152 151 152 156 157 148 141 135 129 137 155 161 158 159 150 130 121 115 109 108 113 116 113 111 115 119 118 113 109 106 101 99 97 95 95 96 95 92 88 81 71 65 63 62 59 57 55 53 51 49 47 46 47
137 140 140 139 140 141 142 143 145 146 146 144 144 146 145 140 136 134 138 149 164 165 156 152 147 137 126 121 121 128 134 134 138 153 161 144 124 112 109 109 107 103 100 97 94 91 87 84 81 80 76 70 64 61 59 57 56 54 51 47 44 43 43
146 144 142 143 143 143 142 140 140 141 140 137 135 133 133 133 132 134 145 157 162 163 162 158 150 138 129 128 134 146 157 163 168 172 162 140 124 116 112 108 105 101 99 97 92 88 86 83 79 76 74 69 63 57 54 52 52 52 52 51 50 48 46
151 146 146 147 147 147 146 142 138 137 138 138 138 138 135 131 131 138 153 161 163 168 169 162 151 140 137 141 148 155 160 161 158 151 140 130 122 115 110 107 103 99 95 92 90 86 83 80 77 73 69 66 61 57 54 52 49 46 45 46 51 53 51
150 148 147 148 149 148 146 142 140 140 141 141 144 147 145 143 148 154 158 161 168 173 169 162 159 154 152 154 154 149 144 143 139 134 128 122 116 109 104 100 95 92 87 83 82 79 74 72 71 69 65 61 58 56 54 50 45 41 36 35 44 53 52